RH
80 84 84 81 79 78 83 87 89 89 89 88 84 83 82 80 81 82 79 80 79 77 77 74 72 71 70 70 69 73 74 71 71 72 73 74 73 75 74 72 71 67 62 58 53 51 48 45 44 44 41 36 33 34 35 36 35 36 37 35 35 35 35 37 39 40 40 41 41 42 43 45 46 48 50 53 58 55 54 58 59 57 56 58 58 57 56 53 47 42 46 51 53 54 55 56 56
79 83 83 79 77 81 85 88 90 88 86 85 82 82 80 80 81 80 78 79 78 78 77 74 72 73 70 69 69 70 72 73 74 75 75 73 72 74 73 71 68 62 56 52 50 49 47 45 44 42 38 34 32 35 37 37 36 37 37 35 35 35 36 37 39 41 42 43 43 44 45 47 47 49 50 53 60 56 55 61 59 59 61 61 60 58 59 56 48 45 50 54 54 54 56 57 56
78 79 81 80 80 86 88 88 88 87 86 84 81 79 79 78 79 78 78 77 77 78 76 74 74 74 70 67 69 68 71 73 74 76 78 74 70 70 71 69 65 58 51 48 48 48 47 45 43 39 35 34 33 35 36 37 37 38 37 37 37 37 38 39 40 42 43 44 44 45 46 47 46 48 50 53 60 57 55 60 59 59 62 61 60 58 58 55 49 48 52 55 55 55 56 57 57
77 78 79 81 84 88 90 88 85 86 87 83 80 78 77 77 77 77 77 76 77 77 75 74 74 76 71 67 70 70 70 74 74 76 77 74 69 68 68 67 61 54 48 46 48 47 46 43 40 37 35 34 34 35 35 36 38 38 38 39 39 39 41 41 42 44 46 45 45 44 44 44 45 48 50 52 57 56 54 57 58 58 58 58 58 57 57 55 52 50 53 56 56 56 57 57 57
75 78 79 83 91 89 85 86 82 84 84 82 81 76 75 77 75 76 76 78 79 76 75 74 73 76 73 71 73 71 71 74 75 73 74 73 68 67 67 65 60 53 48 48 47 46 45 41 38 36 34 34 36 36 35 36 37 38 38 40 40 40 41 43 44 45 45 44 43 42 42 44 46 47 49 51 54 56 56 56 57 57 57 57 57 57 57 57 53 51 55 59 60 59 58 57 57
77 81 81 85 96 91 84 84 81 82 80 78 80 75 74 74 73 75 75 77 79 77 76 74 73 74 73 75 75 73 73 73 74 71 70 69 66 65 64 62 57 52 49 48 46 44 43 39 37 36 35 35 37 36 36 37 37 38 39 41 39 39 41 42 44 43 41 42 44 44 44 46 48 49 50 52 53 56 57 55 55 56 57 57 57 57 58 59 55 53 57 61 62 62 60 59 61
80 83 83 87 94 90 85 84 81 81 78 76 76 74 74 73 73 74 73 75 78 78 78 76 74 74 73 74 72 73 73 71 71 70 68 65 62 61 60 59 55 51 47 46 44 42 40 38 38 36 36 36 36 36 36 39 38 37 38 38 37 38 39 41 44 43 42 45 47 47 47 50 53 52 52 52 54 56 55 55 54 53 53 53 55 56 57 58 58 58 60 61 61 62 61 61 62
80 84 85 87 91 87 83 81 79 78 77 75 73 74 74 73 74 74 73 75 75 76 78 78 76 74 74 73 69 71 73 70 69 66 64 62 59 57 56 56 53 48 44 43 41 39 36 38 40 37 36 37 35 35 37 39 39 38 37 36 37 37 39 40 43 43 45 47 48 49 49 52 54 53 52 51 53 53 53 54 53 51 50 50 52 54 55 57 58 59 60 62 62 61 60 60 61
81 85 85 85 86 83 81 79 77 75 75 73 72 74 76 75 74 74 74 74 74 75 77 79 77 73 74 73 69 69 70 69 66 63 63 61 58 54 52 52 50 45 41 40 38 36 36 39 40 37 37 37 35 36 37 39 39 38 36 37 37 37 38 39 40 43 46 48 49 50 51 53 52 51 49 47 49 50 51 52 51 48 47 48 51 52 54 55 55 56 60 61 61 60 59 59 59
81 87 87 83 82 82 80 77 74 73 73 72 72 75 76 75 74 73 73 73 74 74 76 78 77 74 73 72 69 68 68 66 63 62 62 60 57 52 49 50 47 42 38 37 36 35 37 39 39 38 38 36 36 36 38 40 39 39 37 36 37 37 38 40 41 44 48 50 51 51 51 51 49 48 46 47 48 47 44 43 41 41 42 45 46 47 48 51 53 54 57 60 59 60 59 59 59
82 85 86 85 84 84 80 75 73 72 74 73 74 75 75 74 74 73 72 72 73 74 75 75 75 73 72 69 67 68 66 63 62 62 61 58 55 50 48 47 43 40 36 35 35 36 38 39 38 38 38 35 36 38 39 40 40 39 37 36 36 38 40 41 44 46 50 52 53 52 50 49 47 47 45 45 43 41 40 38 35 35 36 38 40 41 42 44 48 51 54 57 59 61 60 60 60
81 82 80 82 84 83 79 76 74 73 74 74 74 75 74 74 73 73 72 72 72 73 73 73 72 70 69 68 66 67 64 61 63 63 60 57 54 49 47 44 40 38 34 34 36 37 38 39 39 38 37 35 36 39 40 41 40 39 37 36 37 40 41 42 45 48 52 53 53 50 47 46 44 44 42 39 39 41 42 40 37 33 33 36 36 37 36 37 39 43 49 53 56 58 59 60 61
81 84 77 79 81 80 78 77 76 75 74 72 73 75 75 73 71 72 72 72 71 69 69 69 68 68 67 66 67 66 62 61 62 61 60 58 55 49 46 42 38 36 33 34 37 38 37 39 39 37 35 34 37 39 40 40 40 39 38 38 40 41 42 44 48 51 52 52 50 47 44 42 40 39 37 37 42 46 45 42 40 35 33 34 33 33 34 35 37 43 49 52 54 56 59 61 63
76 80 77 80 80 77 76 76 75 73 73 72 74 77 75 73 72 73 73 72 70 67 67 66 65 66 68 67 66 65 61 59 59 60 59 56 55 50 45 41 37 34 31 33 39 39 38 38 38 36 34 35 37 38 39 40 41 42 41 42 43 44 45 48 52 53 52 50 47 44 41 39 37 36 36 39 44 48 49 46 45 42 40 38 35 35 36 37 40 45 52 56 56 55 58 62 63
71 75 76 81 78 76 76 75 73 71 72 72 75 78 76 75 73 74 73 71 71 68 66 65 63 61 64 66 66 65 61 59 58 58 58 55 54 50 44 39 37 33 29 32 39 40 38 38 37 35 34 34 36 38 40 41 43 45 45 45 46 46 47 50 52 52 51 47 44 42 39 36 35 34 35 41 45 47 48 48 48 46 43 42 40 38 38 38 41 45 51 56 57 55 56 60 61
72 74 74 79 77 75 76 74 72 71 70 71 74 76 75 75 74 74 74 72 73 70 65 64 63 59 59 61 63 67 62 58 58 56 57 54 52 50 44 40 38 33 28 32 40 40 38 37 35 35 36 36 37 40 43 44 46 47 47 47 48 48 49 51 51 50 48 44 42 40 37 34 34 34 36 41 47 48 48 49 50 48 46 44 42 41 40 41 44 47 48 52 56 55 56 59 60
70 75 72 76 76 75 75 73 72 70 70 72 74 73 73 74 73 74 73 72 72 70 66 65 64 59 56 57 60 68 64 59 58 55 55 53 52 50 46 43 40 35 30 32 39 40 38 36 35 36 36 37 39 42 45 47 47 47 47 48 48 48 49 50 50 49 46 43 41 39 34 34 34 36 38 42 49 51 52 53 52 51 50 47 45 44 43 43 44 47 49 50 52 50 53 56 55
64 70 70 73 75 74 73 73 71 70 71 73 74 72 71 72 72 72 71 70 69 67 66 66 64 59 56 56 58 64 64 59 57 55 53 51 51 50 47 46 42 37 31 31 38 39 37 36 35 37 37 37 40 42 45 46 45 45 45 45 47 48 49 49 50 48 44 41 40 35 31 33 35 38 41 45 50 53 54 55 55 53 52 49 48 47 47 46 44 46 52 52 48 47 52 53 49
59 64 66 69 73 73 72 72 71 70 72 73 75 72 70 71 72 71 69 67 67 64 65 65 64 61 58 57 57 59 61 60 58 55 53 51 52 51 49 48 45 39 31 31 37 39 36 35 35 36 34 36 39 41 42 44 43 42 43 43 44 48 50 50 49 46 42 39 35 31 30 32 35 40 44 46 49 51 53 54 56 55 53 52 51 51 51 50 47 46 50 48 43 46 53 54 47
55 59 62 66 72 74 73 73 73 72 72 73 74 73 70 71 72 70 67 65 64 62 63 62 62 62 60 59 57 57 58 60 59 55 54 52 51 52 49 49 47 40 33 32 37 38 35 32 34 34 32 35 38 39 40 41 41 40 41 40 41 44 46 46 45 43 40 35 31 30 30 32 35 41 45 46 47 48 49 51 53 54 53 52 51 51 50 50 49 47 43 41 40 41 45 49 45
54 57 58 64 71 73 74 73 74 73 72 71 73 72 70 70 70 67 65 65 62 59 60 60 60 62 60 58 57 56 56 58 58 56 54 52 52 51 50 51 47 40 35 34 36 37 34 29 30 32 31 34 36 37 37 40 40 38 38 37 37 38 38 37 36 36 34 30 29 30 31 33 38 43 45 45 46 48 48 48 48 48 49 51 51 50 48 47 48 46 44 41 40 38 39 41 41
52 54 57 65 70 71 74 73 73 73 71 70 70 69 69 69 67 64 63 63 62 59 59 60 60 60 59 58 57 56 54 55 56 55 54 53 52 51 51 52 47 41 38 36 35 37 33 27 28 30 31 33 34 34 34 38 39 37 36 34 34 33 30 29 28 29 29 28 29 31 33 38 42 44 46 46 46 49 51 51 49 48 49 50 51 50 49 48 47 46 45 44 43 41 39 39 39
49 51 57 67 70 71 75 74 73 72 70 69 68 67 68 68 66 64 63 62 61 60 61 62 60 57 58 59 58 56 53 53 55 54 54 54 53 52 52 51 46 41 38 35 34 35 31 26 27 29 30 32 33 32 31 34 36 35 33 32 32 30 26 25 25 26 27 29 30 33 38 43 44 45 47 48 47 50 52 53 52 50 49 49 49 48 49 50 49 47 46 47 45 43 41 40 39
46 48 55 66 69 72 74 73 72 70 68 69 68 67 67 67 67 66 64 62 63 63 64 65 62 59 58 58 59 57 54 53 54 54 55 56 55 54 52 52 46 40 37 34 32 33 30 25 26 28 29 31 32 31 29 32 34 33 32 32 31 29 26 25 26 27 29 31 33 37 41 43 45 45 47 49 48 48 50 51 51 50 49 47 48 48 49 53 54 52 50 48 47 44 43 41 41
43 44 52 63 67 70 71 71 70 67 68 69 68 66 65 67 66 65 65 65 65 66 67 65 63 62 59 56 57 57 55 53 54 54 54 55 56 54 53 52 47 40 38 34 30 32 30 25 25 27 28 30 31 30 29 31 32 30 30 31 32 31 28 26 29 30 31 34 37 39 40 42 45 47 49 50 49 48 50 52 53 53 52 50 51 51 52 56 57 56 53 50 48 46 44 42 42
42 42 47 59 64 67 68 68 68 65 67 68 66 64 65 67 66 64 65 67 67 69 70 65 61 62 60 56 54 55 55 54 54 54 53 53 54 54 52 50 45 38 36 33 29 30 28 24 24 26 28 28 30 30 28 30 30 28 28 30 33 34 32 30 31 33 35 38 39 39 40 43 46 49 52 53 53 53 54 56 56 56 56 55 53 53 54 56 57 58 55 53 49 47 45 43 42
42 41 42 54 60 63 65 64 64 64 66 66 64 63 63 66 65 62 63 66 67 69 72 67 60 58 57 55 53 52 53 54 54 53 52 51 52 52 50 46 42 38 36 33 30 28 26 23 22 25 28 27 28 28 28 29 29 27 28 29 32 36 36 33 33 36 39 41 40 40 42 45 49 52 54 55 56 56 57 58 58 56 56 57 56 57 57 57 59 59 59 56 52 48 45 43 42
41 39 38 47 54 57 59 59 60 62 65 65 62 61 62 65 64 60 62 66 67 68 71 70 64 58 54 54 53 51 53 53 54 52 50 50 49 48 46 42 39 37 35 33 30 28 26 23 22 24 27 28 27 26 27 28 28 27 28 30 31 34 36 36 36 38 41 42 41 43 45 48 51 53 54 56 57 56 56 57 57 58 58 59 59 60 60 59 60 61 61 58 55 50 46 42 41
38 37 37 41 46 51 54 56 58 60 63 64 61 60 63 65 62 60 62 66 66 67 70 71 69 62 55 51 53 52 52 52 52 51 50 49 46 43 43 38 35 34 33 32 31 29 26 22 21 23 26 28 27 26 27 29 29 30 30 30 30 31 34 35 38 42 42 43 44 46 47 49 51 53 55 56 57 56 55 56 56 58 60 60 59 59 58 57 58 60 60 58 55 52 47 43 40
34 35 36 39 42 46 53 56 57 59 61 62 61 61 63 63 60 60 62 64 66 67 69 70 69 67 60 51 51 54 53 52 51 50 49 47 43 41 42 39 35 34 33 32 32 29 26 22 21 22 24 26 27 26 28 29 30 31 31 30 28 30 32 35 39 42 44 45 46 49 50 51 52 53 54 54 55 55 54 55 55 56 58 57 57 56 54 54 54 56 58 57 54 51 48 44 42
30 31 34 38 41 44 51 56 56 58 60 58 58 61 61 60 60 62 63 63 65 65 67 69 68 68 64 53 49 53 54 53 51 50 48 43 41 39 41 40 36 36 34 31 31 30 26 22 20 21 22 25 27 27 27 29 30 31 31 30 28 30 32 34 37 40 43 46 47 50 52 52 53 52 52 53 53 52 53 53 53 53 52 52 52 52 50 50 51 53 55 55 54 50 46 44 43
27 28 31 35 38 41 47 53 55 56 57 54 54 59 58 56 59 63 64 64 63 63 66 68 67 68 65 55 51 53 55 55 53 52 47 41 39 38 38 39 37 36 34 31 30 29 26 22 21 21 21 23 25 26 26 28 29 30 30 30 29 30 32 32 35 39 42 44 46 50 52 52 52 51 52 53 51 51 51 52 52 51 50 50 50 50 50 50 50 51 51 51 51 49 46 45 43
27 27 30 33 34 38 42 47 52 55 56 53 52 56 57 55 59 64 65 63 62 63 66 68 67 67 66 59 53 53 55 56 53 51 48 42 39 37 36 38 37 36 34 32 30 29 26 23 21 21 21 22 24 25 25 26 27 28 29 30 29 30 31 32 34 38 42 44 45 48 52 52 51 51 51 51 51 51 50 51 51 50 50 49 48 47 48 49 50 49 49 48 49 48 47 47 45
28 28 29 30 31 33 37 42 48 52 53 52 52 54 54 54 58 63 64 62 63 63 65 68 67 67 66 62 58 56 55 55 52 48 47 44 39 37 36 37 38 36 35 34 31 29 26 23 22 22 21 20 22 23 23 25 25 27 29 30 29 28 30 33 35 37 41 43 43 44 48 51 51 51 52 51 51 51 50 50 50 49 49 47 46 45 44 46 47 46 46 46 47 47 47 47 46
22 27 29 29 30 31 34 40 46 48 51 51 52 53 53 52 55 60 63 63 63 63 66 68 67 66 66 66 64 61 58 55 51 48 46 45 42 39 38 38 38 37 36 35 34 31 28 24 22 22 21 20 20 20 22 23 24 26 28 28 28 28 29 32 34 35 38 43 43 43 45 47 49 51 51 51 51 50 50 50 50 48 49 48 47 45 44 45 46 43 42 43 43 43 44 43 43
13 20 28 30 31 30 31 36 42 46 48 49 48 50 52 51 52 58 62 63 63 64 65 67 68 66 66 67 67 65 62 57 53 50 48 46 44 41 38 39 40 38 36 36 35 33 31 27 25 23 22 20 19 19 20 22 23 24 26 27 27 27 28 31 34 34 36 41 43 43 43 44 46 48 48 49 49 48 49 50 50 49 48 48 48 46 44 45 46 43 41 42 41 41 41 40 39
12 17 24 29 30 30 29 33 39 43 46 46 45 47 49 49 48 53 61 62 61 61 64 65 66 66 65 67 68 67 65 60 55 51 50 48 47 44 40 39 40 39 37 36 35 34 33 31 28 25 23 21 19 18 19 20 21 22 24 25 26 26 27 30 33 34 34 38 43 44 43 42 43 45 46 47 46 47 48 49 49 47 47 48 48 46 44 44 45 43 39 41 42 42 41 39 37
16 18 21 27 29 28 28 30 35 40 43 43 43 44 45 46 45 49 56 59 56 57 62 64 64 65 65 67 69 68 66 63 57 52 51 50 49 47 44 40 40 39 37 36 36 35 35 34 31 29 26 23 19 18 18 18 19 21 23 26 26 26 26 28 30 33 33 35 40 43 41 40 41 43 46 47 45 45 46 47 47 45 45 46 47 45 43 42 42 41 39 40 42 41 42 40 39
17 20 21 24 26 26 25 28 32 36 37 39 41 40 41 43 44 45 50 54 55 55 59 64 64 64 65 66 68 68 66 65 59 53 51 50 48 48 45 41 39 39 38 37 36 36 36 36 34 31 29 26 22 18 17 17 18 20 23 26 26 26 26 27 27 30 32 33 36 40 41 40 41 43 45 47 47 45 45 45 45 44 43 44 46 45 44 43 41 40 40 41 42 41 42 41 40
13 20 23 23 23 25 25 27 31 34 33 35 38 39 38 41 43 43 45 50 54 55 58 63 64 64 65 65 67 69 68 67 63 56 52 49 48 47 45 41 39 40 38 35 35 34 35 37 36 34 31 29 25 22 19 19 18 19 22 24 25 25 25 26 25 27 30 31 32 36 39 40 41 43 45 47 46 44 43 44 43 43 41 42 44 44 44 43 41 41 41 41 42 43 42 41 40
11 14 21 22 22 24 24 25 29 31 31 31 36 39 37 39 41 41 43 47 51 53 56 61 63 63 64 64 64 67 69 68 64 60 55 49 47 46 44 41 39 38 36 33 32 32 32 34 35 35 33 31 28 25 24 22 20 20 22 24 24 25 24 25 24 25 27 29 31 34 37 39 41 43 44 45 44 42 41 41 41 41 40 40 41 42 43 42 40 40 41 40 41 44 43 42 41
14 11 14 20 22 23 23 25 27 30 31 30 33 38 37 36 38 38 41 45 48 49 52 57 61 63 63 61 60 63 65 66 64 62 57 49 46 46 44 40 37 35 33 31 31 31 32 33 35 35 33 33 31 28 27 25 24 23 23 24 24 24 24 25 25 25 26 28 30 32 34 37 39 41 43 43 42 41 40 39 39 40 40 40 39 39 41 40 39 39 39 39 40 42 42 43 42
18 11 10 16 21 23 23 24 26 29 31 29 30 34 35 34 34 36 39 42 45 46 49 54 59 60 60 59 58 61 62 63 63 63 60 53 48 46 44 39 34 32 32 31 32 32 32 32 34 35 34 33 33 30 29 28 26 25 24 24 25 24 24 26 26 26 26 27 29 30 32 36 37 39 41 41 41 40 40 40 39 38 39 39 38 37 38 38 38 38 37 38 39 40 41 42 42
18 14 11 14 18 22 23 23 25 25 27 28 28 29 31 32 31 33 37 39 41 43 45 51 56 57 57 56 56 59 60 62 63 65 63 57 51 45 41 36 33 33 34 33 32 31 31 31 32 34 34 34 33 32 30 29 28 26 25 25 25 25 25 26 27 26 25 26 28 29 31 35 36 38 39 39 39 41 41 41 42 40 38 38 37 36 37 37 37 37 36 36 37 38 39 40 41
17 18 16 15 17 21 22 23 24 23 26 29 28 28 30 30 27 30 34 36 38 40 43 50 55 56 55 54 55 58 59 60 62 64 64 60 53 47 42 37 35 35 34 32 30 30 31 32 33 33 34 34 34 33 32 30 29 28 27 26 25 25 26 27 27 27 25 25 26 28 30 34 35 36 38 38 38 40 41 42 44 42 39 37 36 36 36 37 36 35 35 35 35 37 38 39 39
16 18 20 19 19 20 21 23 23 24 27 28 27 28 31 29 24 26 31 32 34 37 41 48 54 55 54 53 54 57 57 59 60 62 65 62 56 50 46 42 37 35 34 32 31 31 31 32 33 33 33 33 33 33 33 32 30 30 29 28 27 26 26 27 27 28 26 24 25 27 29 32 33 34 37 37 37 38 39 41 43 43 41 37 36 36 36 36 36 36 35 35 35 36 37 39 39
16 18 22 24 24 24 24 24 23 27 29 26 23 25 29 30 24 23 26 27 30 34 40 47 53 54 53 51 54 56 56 56 58 60 63 63 59 54 50 46 42 37 36 35 33 31 31 32 32 32 33 33 33 33 33 33 32 31 30 29 27 26 26 27 28 28 26 24 24 26 28 30 31 32 34 35 35 37 37 38 40 42 42 40 36 36 36 36 36 36 36 35 35 35 37 38 39
21 20 23 27 30 30 30 29 28 32 31 24 20 21 25 28 24 20 21 23 27 31 37 45 50 53 53 51 53 54 54 55 56 57 60 62 62 58 54 50 46 42 37 34 33 31 31 31 31 32 33 32 32 32 33 33 33 31 30 28 27 26 27 27 27 27 26 24 24 25 27 29 30 30 31 32 33 34 36 36 37 39 41 40 37 36 35 35 35 36 36 35 35 36 37 38 39
26 24 25 29 35 39 38 34 31 33 31 24 19 19 21 23 21 20 19 21 24 27 32 41 47 51 53 52 52 54 55 54 53 54 56 58 60 60 57 53 48 44 39 34 32 32 31 30 31 31 32 32 31 31 31 33 32 31 29 28 27 27 28 28 27 26 25 24 24 25 26 27 28 28 28 29 30 32 33 35 36 38 38 38 37 36 36 36 36 35 36 35 35 36 36 37 38
30 29 28 29 34 42 42 37 33 32 29 24 19 19 20 18 17 18 17 18 21 24 28 36 42 48 52 53 52 52 55 55 53 52 53 55 57 59 59 55 50 45 41 36 33 32 31 30 30 31 31 32 31 30 30 31 32 31 29 28 28 28 28 28 26 25 25 24 24 24 25 26 26 27 27 27 28 30 31 33 35 37 37 37 37 37 37 37 37 37 37 36 36 36 37 37 37
33 31 30 30 29 32 35 33 32 31 29 25 21 21 21 16 14 16 14 14 18 22 24 30 37 44 49 52 51 51 52 53 52 52 52 52 54 57 58 57 52 46 42 39 36 34 32 30 29 30 30 31 31 31 30 30 31 31 30 29 29 29 29 28 26 24 25 25 25 25 24 24 25 26 26 27 28 28 29 31 34 35 35 35 36 38 38 38 39 39 39 39 38 38 39 39 38
35 33 35 35 29 27 28 27 26 26 26 26 23 22 20 16 13 13 13 13 15 18 20 24 32 42 47 50 49 48 49 50 50 50 50 50 52 54 56 56 53 47 43 41 38 35 33 31 30 29 29 30 30 31 30 30 30 31 30 29 29 29 29 29 27 25 25 25 26 25 25 24 24 25 26 26 27 28 29 30 31 32 33 33 32 34 36 37 37 38 39 39 39 38 38 39 39
36 38 37 34 30 31 32 30 28 27 28 28 25 21 18 15 12 11 12 14 14 16 18 21 28 39 45 46 46 46 47 49 48 47 48 50 50 52 53 54 52 48 44 42 39 36 33 33 32 31 31 30 30 30 29 29 29 30 30 30 29 29 29 28 27 26 26 26 25 25 25 24 23 24 25 25 26 27 27 28 29 30 30 29 29 29 30 33 34 35 36 37 37 36 36 36 37
37 41 38 34 34 35 36 38 37 33 33 32 27 21 17 15 14 11 10 12 12 14 17 20 28 37 41 42 43 43 44 47 48 47 47 49 50 51 53 53 51 48 45 44 41 38 36 35 33 33 32 30 28 29 29 29 29 29 29 29 29 29 28 28 27 26 26 26 26 26 25 24 23 23 24 24 24 24 25 26 26 27 27 27 26 25 26 28 30 32 33 34 35 34 34 34 34
38 42 41 41 40 38 37 40 42 40 38 36 29 21 17 16 14 11 10 10 10 12 17 22 28 35 37 38 40 40 41 45 47 46 46 47 48 50 51 52 51 49 46 45 44 41 39 37 36 34 33 31 29 29 29 29 28 28 28 28 28 28 28 27 27 26 25 25 26 25 25 24 23 23 23 23 23 22 23 24 24 24 24 24 24 24 24 25 27 29 30 31 33 33 33 33 32
41 44 46 47 46 41 37 35 35 38 40 38 32 24 18 15 13 11 11 9 9 11 16 23 28 32 35 35 36 38 39 42 44 45 44 44 45 47 49 50 50 48 47 47 46 44 41 40 38 37 35 33 31 30 29 28 28 27 27 27 27 27 27 28 27 25 24 23 24 24 24 23 23 23 23 22 22 22 23 23 22 22 22 23 23 22 22 23 24 26 28 30 32 32 33 33 32
45 47 49 51 50 45 41 36 32 33 36 37 35 28 19 15 13 11 11 10 9 10 15 22 27 30 33 34 34 35 37 38 40 43 44 42 43 46 49 49 49 49 48 48 48 46 44 43 40 39 38 35 32 30 28 27 27 26 26 25 26 26 26 27 27 26 24 22 22 22 23 23 22 22 22 22 22 23 23 22 21 20 20 21 21 21 21 21 22 23 26 29 31 31 31 32 32
47 47 49 52 52 49 47 43 36 31 33 34 35 31 21 15 14 12 10 9 10 10 13 19 25 28 31 34 34 33 33 35 37 40 42 42 42 45 48 49 49 48 47 47 48 47 46 44 42 40 39 37 33 30 28 27 27 26 25 25 25 25 25 26 26 26 23 22 22 21 22 22 22 21 22 22 22 23 22 21 19 18 18 18 19 19 21 22 22 23 25 27 30 31 30 30 31